Weather History for Bullhead City, AZ

Change the Weather History Date:

Saturday, November 2, 2013

  Actual Average Record
Temperature  
Mean Temperature 68 °F -  
Max Temperature 82 °F 75 °F 93 °F (1999)
Min Temperature 53 °F 56 °F 44 °F (1991)
Cooling Degree Days 2    
Growing Degree Days 18 (Base 50)    
Moisture  
Dew Point 28 °F    
Average Humidity 24    
Maximum Humidity 44    
Minimum Humidity 11    
Precipitation  
Precipitation 0.00 in - - ()
Sea Level Pressure  
Sea Level Pressure 29.97 in    
Wind  
Wind Speed 9 mph (NNE)    
Max Wind Speed 16 mph    
Max Gust Speed 17 mph    
Visibility 10 miles    
Events      
Averages and records for this station are not official NWS values.
T = Trace of Precipitation, MM = Missing Value Source: NWS Daily Summary

Daily Weather History Graph

Daily Weather History Graph

Search for Another Location

Airport:

Trip Planner

Search our weather history database for the weather conditions in past years. The results will help you decide how hot, cold, wet, or windy it might be!

Date:

Astronomy

Nov. 02, 2013 Rise Set
Actual Time 7:00 AM MST 5:42 PM MST
Civil Twilight 6:34 AM MST 6:08 PM MST
Nautical Twilight 6:04 AM MST 6:38 PM MST
Astronomical Twilight 5:34 AM MST 7:08 PM MST
Moon 6:04 AM MST (11/2) 5:16 PM MST (11/2)
Length of Visible Light 11h 34m
Length of Day
10h 41m
Waning Crescent, 1% of the Moon is Illuminated
Nov 2
Waning Crescent
Nov 3
New
Nov 9
First Quarter
Nov 17
Full
Nov 25
Last Quarter

Hourly Weather History & Observations

Time (MST) Temp. Dew Point Humidity Pressure Visibility Wind Dir Wind Speed Gust Speed Precip Events Conditions
12:15 AM 68.0 °F 28.4 °F 23% 30.04 in 10.0 mi NNE 15.0 mph - N/A   Clear
12:35 AM 68.0 °F 28.4 °F 23% 30.04 in 10.0 mi NNE 16.1 mph - N/A   Clear
12:55 AM 68.0 °F 28.4 °F 23% 30.04 in 10.0 mi NNE 16.1 mph - N/A   Clear
1:15 AM 68.0 °F 28.4 °F 23% 30.04 in 10.0 mi NE 15.0 mph - N/A   Clear
1:35 AM 68.0 °F 28.4 °F 23% 30.03 in 10.0 mi NE 15.0 mph - N/A   Clear
1:55 AM 68.0 °F 28.4 °F 23% 30.03 in 10.0 mi NE 11.5 mph - N/A   Clear
2:15 AM 68.0 °F 28.4 °F 23% 30.03 in 10.0 mi NNE 10.4 mph - N/A   Clear
2:35 AM 68.0 °F 28.4 °F 23% 30.02 in 10.0 mi North 6.9 mph - N/A   Clear
2:55 AM 68.0 °F 28.4 °F 23% 30.02 in 10.0 mi NNE 8.1 mph - N/A   Clear
3:15 AM 66.2 °F 28.4 °F 24% 30.02 in 10.0 mi NNE 9.2 mph - N/A   Clear
3:35 AM 68.0 °F 28.4 °F 23% 30.01 in 10.0 mi NNE 12.7 mph - N/A   Clear
3:55 AM 66.2 °F 28.4 °F 24% 30.01 in 10.0 mi NE 12.7 mph - N/A   Clear
4:15 AM 66.2 °F 28.4 °F 24% 30.01 in 10.0 mi NE 12.7 mph - N/A   Clear
4:35 AM 64.4 °F 28.4 °F 26% 30.01 in 10.0 mi NNE 10.4 mph - N/A   Clear
4:55 AM 64.4 °F 30.2 °F 28% 30.01 in 10.0 mi NNW 5.8 mph - N/A   Clear
5:15 AM 62.6 °F 32.0 °F 32% 30.02 in 10.0 mi NNW 3.5 mph - N/A   Clear
5:35 AM 62.6 °F 32.0 °F 32% 30.02 in 10.0 mi Calm Calm - N/A   Clear
5:55 AM 57.2 °F 32.0 °F 38% 30.02 in 10.0 mi Calm Calm - N/A   Clear
6:15 AM 57.2 °F 32.0 °F 38% 30.02 in 10.0 mi SSW 4.6 mph - N/A   Clear
6:35 AM 53.6 °F 32.0 °F 44% 30.03 in 10.0 mi SSW 5.8 mph - N/A   Clear
6:55 AM 53.6 °F 32.0 °F 44% 30.03 in 10.0 mi SSW 4.6 mph - N/A   Clear
7:15 AM 53.6 °F 32.0 °F 44% 30.04 in 10.0 mi SSW 3.5 mph - N/A   Clear
7:35 AM 53.6 °F 32.0 °F 44% 30.04 in 10.0 mi South 3.5 mph - N/A   Clear
7:55 AM 55.4 °F 30.2 °F 38% 30.04 in 10.0 mi SSW 4.6 mph - N/A   Clear
8:15 AM 55.4 °F 30.2 °F 38% 30.05 in 10.0 mi Calm Calm - N/A   Clear
8:35 AM 57.2 °F 30.2 °F 36% 30.05 in 10.0 mi Calm Calm - N/A   Clear
8:55 AM 59.0 °F 30.2 °F 34% 30.04 in 10.0 mi Calm Calm - N/A   Clear
9:15 AM 60.8 °F 30.2 °F 31% 30.04 in 10.0 mi Calm Calm - N/A   Clear
9:35 AM 64.4 °F 32.0 °F 30% 30.03 in 10.0 mi NNW 4.6 mph - N/A   Clear
9:55 AM 68.0 °F 30.2 °F 24% 30.02 in 10.0 mi NNE 10.4 mph - N/A   Clear
10:15 AM 68.0 °F 30.2 °F 24% 30.02 in 10.0 mi North 10.4 mph 16.1 mph N/A   Clear
10:35 AM 69.8 °F 30.2 °F 23% 30.01 in 10.0 mi NNE 16.1 mph - N/A   Clear
10:55 AM 71.6 °F 30.2 °F 22% 30.00 in 10.0 mi NNE 16.1 mph - N/A   Clear
11:15 AM 73.4 °F 30.2 °F 20% 29.99 in 10.0 mi North 15.0 mph - N/A   Clear
11:35 AM 73.4 °F 30.2 °F 20% 29.99 in 10.0 mi North 13.8 mph 17.3 mph N/A   Clear
11:55 AM 73.4 °F 30.2 °F 20% 29.98 in 10.0 mi North 11.5 mph 16.1 mph N/A   Clear
12:15 PM 75.2 °F 28.4 °F 18% 29.97 in 10.0 mi North 10.4 mph - N/A   Clear
12:35 PM 75.2 °F 30.2 °F 19% 29.95 in 10.0 mi North 12.7 mph 17.3 mph N/A   Clear
12:55 PM 77.0 °F 28.4 °F 17% 29.94 in 10.0 mi North 11.5 mph - N/A   Clear
1:15 PM 77.0 °F 32.0 °F 19% 29.92 in 10.0 mi North 10.4 mph - N/A   Clear
1:35 PM 77.0 °F 30.2 °F 18% 29.91 in 10.0 mi North 9.2 mph - N/A   Clear
1:55 PM 78.8 °F 28.4 °F 16% 29.90 in 10.0 mi North 8.1 mph - N/A   Clear
2:15 PM 78.8 °F 26.6 °F 15% 29.89 in 10.0 mi NNW 3.5 mph - N/A   Clear
2:35 PM 78.8 °F 24.8 °F 14% 29.88 in 10.0 mi Calm Calm - N/A   Clear
2:55 PM 80.6 °F 26.6 °F 14% 29.88 in 10.0 mi WNW 3.5 mph - N/A   Clear
3:15 PM 80.6 °F 24.8 °F 13% 29.87 in 10.0 mi Calm Calm - N/A   Clear
3:35 PM 80.6 °F 24.8 °F 13% 29.86 in 10.0 mi Calm Calm - N/A   Clear
3:55 PM 80.6 °F 24.8 °F 13% 29.85 in 10.0 mi Calm Calm - N/A   Clear
4:15 PM 80.6 °F 23.0 °F 12% 29.85 in 10.0 mi Calm Calm - N/A   Clear
4:35 PM 82.4 °F 23.0 °F 11% 29.84 in 10.0 mi WSW 3.5 mph - N/A   Clear
4:55 PM 82.4 °F 23.0 °F 11% 29.83 in 10.0 mi Calm Calm - N/A   Clear
5:15 PM 80.6 °F 23.0 °F 12% 29.82 in 10.0 mi Calm Calm - N/A   Clear
5:35 PM 80.6 °F 23.0 °F 12% 29.82 in 10.0 mi Calm Calm - N/A   Clear
5:55 PM 78.8 °F 23.0 °F 13% 29.82 in 10.0 mi Calm Calm - N/A   Clear
6:15 PM 73.4 °F 24.8 °F 16% 29.81 in 10.0 mi SE 3.5 mph - N/A   Clear
6:35 PM 71.6 °F 24.8 °F 17% 29.82 in 10.0 mi ESE 6.9 mph - N/A   Clear
6:55 PM 71.6 °F 24.8 °F 17% 29.82 in 10.0 mi ESE 5.8 mph - N/A   Clear